Location: Newark
(41.0400°S, 62.7845°W)
Time: 00:41:37
(UTC+00:00)

Envisat - Pass Details

Date: 24 October 2021
Orbit: 764 x 766 km, 98.2° (Epoch: 28 November)

Event Time Altitude Azimuth Distance (km) Brightness Sun altitude
Rises 08:02:15 0° 26° (NNE) 3,224 6.2 -12.4°
Reaches altitude 10° 08:04:34 10° 29° (NNE) 2,306 5.5 -12.0°
Maximum altitude 08:09:33 58° 107° (ESE) 901 3.8 -11.2°
Drops below altitude 10° 08:14:36 10° 185° (S) 2,336 5.8 -10.3°
Sets 08:16:57 0° 188° (S) 3,270 6.5 -9.9°
